Date,TemperatureHighF,TemperatureAvgF,TemperatureLowF,DewpointHighF,DewpointAvgF,DewpointLowF,HumidityHigh,HumidityAvg,HumidityLow,PressureMaxIn,PressureMinIn,WindSpeedMaxMPH,WindSpeedAvgMPH,GustSpeedMaxMPH,PrecipitationSumIn
2013-1-1,26,18,12,18,12,6,88,76,57,30.22,30.09,12,4,12,0.00
2013-1-2,38,23,12,26,17,8,86,77,60,30.19,30.05,11,4,11,0.00
2013-1-3,41,30,21,29,23,16,89,76,53,30.34,30.17,6,1,6,0.00
2013-1-4,45,31,20,30,23,16,92,75,52,30.34,30.18,13,4,13,0.00
2013-1-5,42,36,31,35,30,24,85,78,71,30.19,30.01,15,6,15,0.00
2013-1-6,45,31,22,25,22,17,82,69,42,30.31,30.10,12,3,12,0.00
2013-1-7,49,37,24,29,25,19,82,64,43,30.24,30.01,13,7,13,0.00
2013-1-8,55,42,33,38,31,26,76,66,46,30.12,29.93,16,7,16,0.00
2013-1-9,55,43,33,37,32,27,84,66,45,30.36,30.12,9,2,9,0.00
2013-1-10,50,43,37,49,39,28,95,87,65,30.29,29.70,10,4,10,0.00
2013-1-11,60,54,48,49,47,45,95,77,61,29.73,29.57,20,10,20,0.00
2013-1-12,58,32,22,47,23,14,89,69,36,30.04,29.69,14,5,14,0.00
2013-1-13,28,19,12,14,10,5,77,67,50,30.28,29.97,13,3,13,0.00
2013-1-14,33,20,13,14,9,5,73,63,43,30.43,30.28,10,2,10,0.00
2013-1-15,18,17,15,10,8,6,69,67,62,30.33,30.29,3,1,3,0.00
2013-1-28,68,67,67,60,59,58,77,75,73,29.69,29.66,17,12,17,0.00
2013-1-29,67,52,36,60,48,34,94,89,77,29.66,29.40,19,7,19,0.00
2013-1-30,36,28,23,34,23,16,94,82,72,29.92,29.42,15,5,15,0.00
2013-1-31,26,18,8,19,10,0,85,70,55,30.40,29.88,14,4,14,0.00
2013-2-1,28,15,4,15,6,-1,83,68,54,30.40,30.14,11,3,11,0.00
2013-2-2,48,36,25,33,25,16,75,66,53,30.15,30.01,8,3,8,0.00
2013-2-3,42,37,33,32,24,15,71,59,37,30.21,30.06,9,5,9,0.00
2013-2-4,27,24,23,22,21,19,88,86,83,29.94,29.91,4,0,4,0.00
2013-2-5,58,39,20,34,27,17,90,66,38,30.07,29.85,14,4,14,0.00
2013-2-6,64,47,31,39,33,25,81,61,38,30.07,29.86,13,5,13,0.00
2013-2-7,49,43,33,46,39,28,94,85,63,30.13,29.83,15,5,15,0.00
2013-2-8,41,32,28,32,27,25,91,83,68,30.29,30.13,13,4,13,0.00
2013-2-9,52,36,27,36,30,25,92,80,52,30.20,29.76,13,6,13,0.00
2013-2-10,55,46,37,48,35,24,94,69,45,29.85,29.44,25,10,25,0.00
2013-2-11,52,39,32,28,25,21,74,58,34,30.10,29.85,8,3,8,0.00
2013-2-12,42,34,26,31,25,22,84,69,52,30.12,29.91,7,2,7,0.00
2013-2-13,56,40,27,29,26,23,83,61,32,29.91,29.76,8,3,8,0.00
2013-2-21,26,25,25,23,23,22,91,91,90,29.76,29.74,12,7,12,0.00
2013-3-11,40,30,26,27,24,20,89,77,55,29.95,29.77,8,2,9,0.00
2013-3-12,49,36,25,31,24,20,81,64,39,30.25,29.95,13,3,13,0.00
2013-3-13,51,34,24,25,21,18,80,61,36,30.41,30.25,10,2,10,0.00
2013-3-14,76,51,33,43,33,24,70,52,30,30.27,30.00,14,5,14,0.00
2013-3-15,81,62,44,51,44,36,74,54,32,30.03,29.63,16,6,16,0.00
2013-3-16,60,43,36,47,36,28,87,74,62,30.02,29.64,20,9,20,0.00
2013-3-17,36,33,31,32,29,26,93,85,74,30.02,29.69,15,8,19,0.00
2013-3-18,56,41,33,39,30,19,94,69,32,30.01,29.69,13,3,13,0.00
2013-3-19,43,35,27,34,24,15,92,66,36,30.18,30.00,11,1,11,0.00
2013-3-20,39,31,24,32,15,7,93,54,30,30.30,30.07,16,4,16,0.00
2013-3-21,29,26,22,26,18,8,87,70,44,30.07,29.87,10,3,10,0.00
2013-3-22,34,32,29,31,28,26,90,87,83,29.96,29.89,8,4,8,0.00
2013-3-23,40,35,32,33,30,28,93,82,64,29.97,29.78,16,7,16,0.00
2013-3-24,32,30,23,31,27,20,94,91,86,29.98,29.70,12,4,12,0.00
2013-3-25,35,28,21,28,23,18,91,82,70,30.24,29.95,10,3,10,0.00
2013-3-26,45,31,20,25,21,17,90,69,41,30.33,30.24,8,2,8,0.00
2013-3-27,53,37,24,33,27,17,80,67,43,30.27,30.15,10,3,10,0.00
2013-3-28,70,51,37,43,37,31,79,60,36,30.18,30.08,9,3,9,0.00
2013-3-29,70,54,39,46,39,35,88,61,31,30.16,30.07,12,5,12,0.00
2013-3-30,64,52,47,56,46,36,91,82,57,30.07,29.83,14,3,14,0.00
2013-3-31,69,56,46,50,42,29,94,63,34,29.93,29.87,12,3,12,0.00
2013-4-1,49,40,33,34,24,16,84,53,31,30.22,29.93,18,6,18,0.00
2013-4-2,49,38,27,25,22,18,71,52,37,30.28,30.20,13,4,13,0.00
2013-4-3,52,42,31,27,23,19,73,50,29,30.31,30.18,16,5,16,0.00
2013-4-4,65,49,37,34,26,23,67,44,24,30.18,30.01,12,2,12,0.00
2013-4-5,71,56,41,45,36,24,68,48,37,30.13,29.85,16,5,16,0.00
2013-4-6,76,63,54,51,44,36,59,51,37,29.85,29.63,21,9,21,0.00
2013-4-7,78,63,51,54,47,39,89,58,37,29.85,29.64,15,3,15,0.00
2013-4-8,75,65,54,64,58,51,92,80,66,29.73,29.64,15,5,15,0.00
2013-4-9,76,68,64,62,59,57,80,74,63,29.77,29.64,15,5,15,0.00
2013-4-10,70,47,41,61,44,39,93,90,70,29.88,29.64,14,4,14,0.00
2013-4-11,44,37,34,39,31,27,93,78,59,29.74,29.66,12,3,12,0.00
2013-4-12,55,41,31,35,30,26,83,67,44,29.97,29.71,9,2,9,0.00
2013-4-13,67,50,34,43,36,27,82,62,40,30.02,29.71,11,3,11,0.00
2013-4-14,78,64,52,56,48,42,86,60,37,29.71,29.46,30,10,30,0.00
2013-4-15,58,49,44,45,40,36,91,72,49,29.94,29.67,14,4,14,0.00
2013-4-16,45,43,41,38,36,34,83,76,68,30.09,29.94,20,9,20,0.00
2013-4-17,58,50,45,56,47,38,95,92,79,30.02,29.59,14,5,14,0.00
2013-4-18,50,42,37,48,38,28,95,86,68,29.86,29.46,13,4,13,0.00
2013-4-19,54,42,33,29,26,22,75,55,30,30.04,29.83,12,3,12,0.00
2013-4-20,58,46,33,36,29,23,67,52,37,30.20,30.04,9,3,9,0.00
2013-4-21,71,57,45,46,40,32,71,53,35,30.20,30.07,16,6,16,0.13
2013-4-22,70,58,45,47,42,36,73,57,40,30.11,29.87,16,5,16,0.55
2013-4-23,54,38,35,48,35,32,92,89,71,30.09,29.92,19,7,19,0.57
2013-4-24,55,42,31,33,30,21,93,66,37,30.19,30.08,9,3,11,0.04
2013-4-25,70,54,36,44,38,30,81,56,33,30.26,30.11,12,4,12,0.00
2013-4-26,57,51,47,49,45,38,94,79,53,30.20,30.11,18,6,18,0.48
2013-4-27,53,49,47,50,47,45,95,92,88,30.16,29.95,9,3,9,0.53
2013-4-28,75,58,42,57,50,40,95,75,47,29.95,29.78,11,3,11,0.01
2013-4-29,84,69,55,65,57,48,81,67,49,29.80,29.63,16,8,16,0.00
2013-4-30,84,73,63,58,54,49,76,54,33,29.81,29.65,19,8,19,0.00
2013-5-1,88,70,47,63,53,40,78,57,36,30.10,29.81,22,6,22,0.00
2013-5-2,47,39,32,40,35,30,93,86,75,30.27,30.07,20,9,20,0.26
2013-5-3,36,34,32,34,32,31,94,92,89,30.21,29.83,14,6,14,0.55
2013-5-4,46,40,33,40,36,31,94,87,75,29.97,29.76,10,2,10,0.12
2013-5-5,62,51,43,53,47,40,94,85,68,30.04,29.94,10,3,10,0.01
2013-5-6,74,58,50,57,51,48,93,79,50,30.05,29.97,10,3,10,0.00
2013-5-7,80,67,53,58,52,47,90,61,32,30.03,29.93,8,2,8,0.00
2013-5-8,77,66,58,59,54,47,83,66,51,29.99,29.85,14,4,14,0.17
2013-5-9,78,65,58,62,58,55,93,81,49,29.89,29.81,14,2,14,0.68
2013-5-10,66,58,53,56,52,48,93,83,60,30.00,29.85,14,3,14,0.00
2013-5-11,66,57,47,50,40,28,91,57,28,30.18,29.98,21,5,21,0.01
2013-5-12,72,55,39,37,30,26,64,41,23,30.22,30.09,9,2,9,0.00
2013-5-13,79,64,47,56,47,30,74,54,39,30.12,29.90,12,4,12,0.00
2013-5-14,92,77,63,60,54,47,76,50,23,29.91,29.77,19,8,19,0.00
2013-5-15,87,75,66,68,60,54,84,62,48,29.88,29.78,16,7,16,0.00
2013-5-16,84,71,60,66,61,56,91,72,48,29.88,29.78,11,4,11,0.01
2013-5-17,84,69,57,65,60,54,92,75,50,29.91,29.82,5,2,5,0.00
2013-5-18,89,75,61,70,65,57,90,72,53,29.89,29.73,12,4,12,0.00
2013-5-19,87,72,61,71,64,58,91,76,55,29.83,29.53,20,6,20,1.17
2013-5-20,77,65,60,68,61,57,93,87,70,29.75,29.61,15,6,15,0.89
2013-5-21,75,65,56,62,57,50,93,75,54,29.76,29.64,11,3,11,0.01
2013-5-22,70,61,53,54,51,49,89,71,55,29.89,29.68,7,2,7,0.00
2013-5-23,68,60,52,57,52,48,86,76,66,30.17,29.89,12,3,12,0.00
2013-5-24,76,63,51,56,50,46,92,64,35,30.29,30.11,13,4,13,0.00
2013-5-25,84,69,57,68,57,46,83,66,50,30.13,29.98,14,6,14,0.00
2013-5-26,85,75,65,71,66,62,90,75,59,30.03,29.88,15,6,15,0.00
2013-5-27,82,70,62,72,64,59,94,82,68,29.95,29.67,19,5,19,2.19
2013-5-28,78,72,69,70,67,64,91,84,76,29.79,29.63,19,5,19,0.22
2013-5-29,84,74,64,70,65,60,91,75,59,29.83,29.64,20,8,20,0.07
2013-5-30,72,64,62,66,61,58,93,88,71,29.74,29.56,23,8,23,1.40
2013-5-31,80,67,59,72,63,57,94,88,73,29.79,29.63,14,4,14,2.76
2013-6-1,74,66,58,62,57,52,93,76,52,29.92,29.65,8,2,8,0.01
2013-6-2,67,59,53,56,51,46,85,76,56,30.04,29.91,10,3,10,0.00
2013-6-3,78,63,49,59,52,43,82,67,48,30.04,29.87,10,3,10,0.00
2013-6-4,75,65,59,66,60,54,90,82,73,29.99,29.86,9,4,9,0.06
2013-6-5,70,63,59,65,60,57,93,91,84,29.95,29.86,8,2,8,0.27
2013-6-6,75,67,58,61,57,52,93,72,51,29.92,29.86,8,2,8,0.00
2013-6-7,76,65,55,58,54,50,88,68,47,29.96,29.87,11,2,11,0.00
2013-6-8,82,69,56,61,56,49,81,64,47,29.91,29.76,12,5,12,0.00
2013-6-9,83,69,61,65,59,55,92,73,41,29.84,29.73,11,4,11,0.38
2013-6-10,93,74,58,66,60,54,89,66,39,29.86,29.78,9,2,9,0.00
2013-6-11,94,80,69,71,66,60,86,64,41,29.86,29.77,14,6,14,0.00
2013-6-12,98,84,72,74,70,64,86,65,44,29.86,29.74,20,7,20,0.00
2013-6-13,86,73,62,66,60,54,77,65,45,30.02,29.87,16,3,16,0.00
2013-6-14,91,78,65,71,65,60,88,67,50,30.02,29.87,12,4,12,0.00
2013-6-15,87,74,66,76,68,63,92,82,69,30.01,29.87,14,5,14,1.06
2013-6-16,84,73,66,74,69,63,93,86,70,29.93,29.86,8,2,8,0.00
2013-6-17,75,69,64,71,66,61,93,89,81,29.96,29.85,11,2,11,1.13
2013-6-18,86,74,64,71,65,61,94,76,45,29.99,29.93,14,2,14,0.01
2013-6-19,92,77,64,71,65,58,89,67,46,30.02,29.93,9,2,9,0.00
2013-6-20,90,79,67,73,69,63,89,71,56,30.00,29.89,14,6,14,0.00
2013-6-21,92,83,74,76,72,68,85,71,54,29.97,29.89,16,8,16,0.00
2013-6-22,93,82,71,75,71,67,88,70,49,29.98,29.83,17,6,17,0.00
2013-6-23,90,80,73,76,71,68,85,75,60,29.93,29.82,14,5,14,0.00
2013-6-24,94,81,72,76,70,66,88,71,48,29.95,29.78,19,8,19,0.00
2013-6-25,90,81,77,74,70,68,83,71,56,29.88,29.71,18,8,19,0.02
2013-6-26,99,85,73,75,69,63,86,62,32,29.86,29.70,12,4,12,0.00
2013-6-27,93,79,70,75,69,63,91,72,49,30.00,29.74,11,2,11,0.76
2013-6-28,87,78,67,73,64,57,93,64,39,29.94,29.81,13,3,13,0.01
2013-6-29,82,73,66,63,59,56,82,63,44,29.83,29.75,20,4,20,0.02
2013-6-30,79,69,60,62,58,56,86,69,49,29.98,29.82,16,5,16,0.00
2013-7-1,82,71,60,60,54,50,79,58,37,30.05,29.98,16,5,16,0.00
2013-7-2,85,71,59,58,54,51,78,57,34,30.08,30.00,15,3,15,0.00
2013-7-3,89,70,60,64,57,52,80,64,34,30.04,29.96,8,2,8,0.00
2013-7-4,90,75,60,64,58,53,78,58,33,30.02,29.93,8,3,8,0.00
2013-7-5,91,77,63,65,60,56,80,59,38,29.99,29.89,10,4,10,0.00
2013-7-6,92,78,66,69,63,60,84,63,41,29.96,29.88,14,5,14,0.00
2013-7-7,92,79,69,72,66,62,84,65,48,29.97,29.90,16,6,16,0.01
2013-7-8,95,82,73,73,68,63,76,64,46,30.01,29.94,12,5,12,0.00
2013-7-9,98,85,75,76,72,68,79,65,46,29.99,29.83,11,6,11,0.00
2013-7-10,92,84,74,74,68,58,71,59,34,30.00,29.87,12,4,12,0.00
2013-7-11,89,77,66,63,60,58,80,59,38,30.05,29.96,9,3,9,0.00
2013-7-12,92,77,64,65,60,57,82,58,34,30.04,29.96,10,4,10,0.00
2013-7-13,89,76,65,69,62,57,78,62,47,30.03,29.94,11,4,11,0.00
2013-7-14,90,77,63,65,62,58,87,61,36,30.08,29.98,9,3,9,0.00
2013-7-15,94,79,68,71,67,64,88,70,44,30.16,30.07,9,2,9,0.00
2013-7-16,100,83,70,74,69,65,89,65,34,30.23,30.14,9,2,9,0.00
2013-7-17,96,83,73,74,71,68,85,69,45,30.29,30.16,9,2,9,0.00
2013-7-18,98,86,73,74,69,65,85,58,35,30.18,29.97,8,2,8,0.00
2013-7-19,99,86,72,72,67,64,79,57,34,29.98,29.83,13,2,13,0.00
2013-7-20,86,79,73,74,70,65,90,74,58,29.91,29.84,6,2,6,0.21
2013-7-21,93,79,70,72,69,67,90,74,49,29.89,29.78,9,3,9,0.00
2013-7-22,95,84,69,74,69,65,92,64,45,29.83,29.74,10,4,10,0.00
2013-7-23,87,78,71,74,68,64,88,72,55,29.90,29.77,13,4,13,0.00
2013-7-24,87,75,64,63,61,59,84,64,42,30.02,29.89,12,4,12,0.00
2013-7-25,89,75,65,69,63,57,86,69,42,30.07,29.98,7,2,7,0.03
2013-7-26,89,75,67,71,65,54,91,73,47,30.02,29.94,11,2,11,0.05
2013-7-27,80,68,57,57,53,48,83,61,39,30.07,29.94,13,3,13,0.00
2013-7-28,84,69,57,57,51,48,72,55,31,30.03,29.98,8,2,8,0.00
2013-7-29,72,67,62,67,62,54,93,85,67,30.07,29.96,10,2,10,0.25
2013-7-30,84,75,69,75,71,67,94,88,73,30.02,29.94,7,3,7,0.54
2013-7-31,83,74,67,71,67,63,93,80,59,30.08,30.00,10,3,10,0.00
2013-8-1,94,78,65,72,66,62,92,69,41,30.07,29.93,6,2,6,0.00
2013-8-2,84,76,69,75,70,65,91,83,73,29.95,29.84,16,3,16,0.22
2013-8-3,86,76,71,74,70,68,92,82,66,30.09,29.87,8,4,8,0.00
2013-8-4,74,71,68,69,65,61,92,84,77,30.12,29.99,8,3,8,0.03
2013-8-5,92,78,70,76,71,67,93,81,56,30.02,29.80,7,2,7,0.00
2013-8-6,90,79,69,76,72,67,93,81,60,29.86,29.77,12,3,12,1.03
2013-8-7,93,78,70,78,72,65,93,82,58,29.92,29.75,19,3,19,2.91
2013-8-8,76,70,66,68,65,63,89,84,77,29.97,29.89,10,4,10,0.01
2013-8-9,75,70,67,70,66,63,90,86,81,30.07,29.94,8,2,8,0.02
2013-8-10,86,74,65,68,63,60,91,71,47,30.15,30.05,9,3,9,0.00
2013-8-11,93,76,62,71,64,55,80,67,47,30.10,29.99,7,2,7,0.00
2013-8-12,87,75,68,71,68,64,90,79,56,30.01,29.92,7,2,7,0.41
2013-8-13,80,72,65,66,62,58,89,73,54,30.09,29.98,11,3,11,0.00
2013-8-14,81,69,60,60,57,53,86,68,45,30.16,30.06,9,2,9,0.00
2013-8-15,80,68,57,60,56,52,83,69,49,30.10,29.99,8,2,8,0.00
2013-8-16,79,68,59,61,56,54,83,68,49,30.12,30.04,8,2,8,0.00
2013-8-17,82,69,57,61,56,52,83,64,43,30.16,30.06,10,2,10,0.00
2013-8-18,88,73,60,66,60,53,81,64,45,30.14,30.04,6,1,6,0.00
2013-8-19,89,75,64,69,63,59,86,67,47,30.08,29.98,10,2,10,0.00
2013-8-20,90,77,65,70,65,60,84,68,48,30.04,29.97,10,4,10,0.00
2013-8-21,92,78,66,71,67,62,86,69,46,30.06,29.97,9,4,9,0.00
2013-8-22,100,81,70,73,69,65,84,69,41,30.07,29.98,8,2,8,0.00
2013-8-23,95,82,70,75,69,64,83,66,43,30.07,29.98,6,2,6,0.00
2013-8-24,95,81,70,74,69,64,84,68,46,30.12,30.02,10,3,10,0.00
2013-8-25,96,80,68,74,69,63,85,69,43,30.19,30.09,11,4,11,0.00
2013-8-26,95,82,71,74,70,66,84,69,47,30.14,30.03,10,5,10,0.00
2013-8-27,94,81,71,71,68,65,84,65,42,30.05,29.96,13,5,13,0.00
2013-8-28,97,82,70,73,68,63,82,65,45,30.02,29.97,7,3,7,0.00
2013-9-8,81,81,81,68,68,68,66,65,64,29.85,29.85,7,6,7,0.00
2013-9-9,96,84,72,69,65,60,77,55,32,29.93,29.85,14,5,14,0.00
2013-9-10,95,82,71,68,65,62,77,57,38,30.04,29.93,14,5,14,0.00
2013-9-11,97,82,70,68,64,61,74,56,33,30.10,30.00,9,3,9,0.00
2013-9-12,78,75,73,67,65,63,77,70,63,30.04,30.01,6,2,6,0.00
2013-10-3,74,74,74,51,50,48,44,42,40,29.80,29.77,12,9,12,0.00
2013-10-4,90,77,68,69,50,22,58,41,18,29.86,29.74,18,9,18,0.00
2013-10-5,74,56,45,57,38,22,64,51,33,29.97,29.84,9,3,9,0.11
2013-10-6,64,50,41,44,37,27,64,59,47,29.94,29.80,10,3,10,0.00
2013-10-7,79,58,42,47,38,22,63,49,32,30.09,29.93,6,2,6,0.00
2013-10-8,79,62,49,51,44,31,63,52,32,30.08,29.99,14,6,14,0.00
2013-10-9,82,62,48,52,41,25,62,47,29,30.07,29.99,11,4,11,0.00
2013-10-10,83,64,51,57,44,23,62,49,32,30.04,29.85,13,4,13,0.00
2013-10-11,77,67,57,60,45,24,57,46,28,29.86,29.75,18,8,18,0.00
2013-10-12,72,61,50,47,38,15,62,45,17,30.19,29.82,12,4,12,0.15
2013-10-13,73,59,47,42,37,34,64,46,27,30.35,30.19,14,4,14,0.00
2013-10-14,70,58,50,50,38,20,62,49,21,30.25,29.86,18,6,18,0.09
2013-10-15,65,56,42,46,32,12,64,44,17,30.01,29.82,14,4,14,0.07
2013-10-16,64,50,41,44,35,24,64,57,43,30.04,29.93,8,2,8,0.01
2013-10-17,68,53,42,44,33,14,64,47,31,29.95,29.84,12,2,12,0.02
2013-10-18,50,42,37,37,25,14,65,50,37,30.07,29.94,11,2,11,0.17
2013-10-19,63,45,34,42,26,12,64,48,36,30.02,29.85,11,5,11,0.01
2013-10-20,72,56,44,45,38,28,64,52,34,29.87,29.75,13,6,13,0.00
2013-10-21,62,48,41,43,33,28,65,57,37,30.06,29.87,13,4,13,0.00
2013-10-22,63,49,38,46,36,25,66,60,46,30.04,29.83,17,6,17,0.00
2013-10-23,57,42,32,36,28,17,67,58,43,30.12,29.99,9,2,9,0.00
2013-10-24,52,42,32,31,26,18,67,53,37,30.36,30.08,13,4,13,0.00
2013-10-25,59,45,33,31,26,23,67,51,28,30.40,30.09,14,4,14,0.00
2013-10-26,63,50,42,44,33,27,66,54,33,30.11,30.02,12,4,12,0.00
2013-10-27,67,49,34,33,29,24,67,48,25,30.09,29.90,10,3,10,0.00
2013-10-28,71,54,41,54,38,23,67,57,31,30.10,29.95,9,3,9,0.00
2013-10-29,62,56,49,35,16,7,52,24,12,30.09,29.90,10,4,10,0.82
2013-10-30,67,63,60,25,7,3,21,8,1,29.93,29.69,17,8,17,0.72
2013-10-31,60,51,43,38,5,-4,53,15,1,29.69,29.48,12,4,12,0.63
2013-11-1,63,50,41,44,31,1,64,50,17,29.90,29.59,10,2,11,0.01
2013-11-2,57,47,39,40,32,24,66,56,45,30.13,29.90,10,3,10,0.00
2013-11-3,62,49,35,41,34,16,64,56,41,30.13,29.89,19,8,19,0.00
2013-11-4,60,55,50,47,42,33,65,60,41,30.07,29.88,17,7,17,0.00
2013-11-5,57,54,51,33,1,-4,41,6,1,30.07,29.80,15,7,15,1.14
2013-11-6,57,40,32,35,15,-6,64,40,1,30.27,29.81,17,3,17,0.30
2013-11-7,58,42,31,38,22,0,64,44,26,30.31,30.25,12,2,12,0.01
2013-11-8,66,50,34,40,33,22,67,53,32,30.27,29.86,26,8,26,0.00
2013-11-9,69,55,45,42,35,30,65,49,30,30.24,29.93,15,4,15,0.00
2013-11-10,64,50,37,35,31,23,66,50,30,30.36,30.16,10,3,10,0.00
2013-11-11,62,48,28,49,34,5,68,60,18,30.53,30.11,21,7,21,0.00
2013-11-12,38,26,18,19,13,9,70,59,38,30.76,30.53,19,4,19,0.00
2013-11-13,50,35,22,24,17,9,67,51,31,30.61,30.13,17,8,17,0.00
2013-11-14,56,43,33,30,26,23,68,53,36,30.14,29.92,17,9,17,0.00
2013-11-15,61,49,42,45,35,22,66,59,34,29.93,29.71,17,7,17,0.00
2013-11-16,68,60,49,48,28,1,49,30,1,29.72,29.42,30,13,30,0.05
2013-11-17,68,61,45,52,30,11,63,35,13,30.01,29.32,17,7,17,0.00
2013-11-18,62,47,35,36,28,14,65,49,29,30.23,30.00,9,2,9,0.00
2013-11-19,63,48,36,34,28,24,65,47,26,30.20,29.96,18,5,18,0.00
2013-11-20,49,44,37,30,21,3,65,41,24,29.97,29.84,19,5,19,0.44
2013-11-21,50,42,29,36,9,-10,60,30,7,30.31,29.91,14,4,14,0.40
2013-11-22,30,27,24,16,10,2,58,49,32,30.52,30.30,16,6,16,0.00
2013-11-23,29,23,14,16,12,6,70,62,45,30.68,30.50,16,6,16,0.00
2013-11-24,30,20,9,17,10,1,71,64,51,30.66,30.27,10,4,10,0.00
2013-11-25,38,31,26,23,19,16,67,61,52,30.27,30.10,9,3,9,0.00
2013-11-26,38,30,21,25,17,10,66,59,47,30.30,30.07,18,5,18,0.00
2013-11-27,38,25,16,16,12,8,71,59,36,30.35,30.10,14,4,14,0.00
2013-11-28,44,33,26,26,20,15,68,60,48,30.41,30.09,13,4,13,0.00
2013-11-29,55,36,23,33,24,12,68,61,42,30.43,30.21,10,4,10,0.00
2013-11-30,58,43,32,40,30,20,66,60,43,30.21,30.02,10,4,11,0.00
2013-12-1,65,46,37,43,30,15,66,54,38,30.06,29.83,8,2,8,0.00
2013-12-2,50,41,32,33,7,-11,58,28,10,29.83,29.58,10,5,12,0.00
2013-12-3,60,46,36,47,12,-10,62,28,11,29.58,29.49,11,5,11,0.00
2013-12-4,49,38,24,18,6,-7,68,33,10,29.94,29.46,8,3,8,0.00
2013-12-5,24,19,17,15,10,8,70,67,62,30.29,29.94,16,5,16,0.00
2013-12-6,19,15,10,8,3,0,68,59,47,30.55,30.27,17,6,17,0.00
2013-12-7,23,14,5,7,3,-2,72,63,44,30.62,30.30,12,5,12,0.00
2013-12-8,24,21,18,13,8,3,69,58,43,30.31,29.92,9,3,9,0.00
2013-12-9,20,14,10,10,5,0,73,67,51,30.30,30.08,8,1,8,0.00
2013-12-10,44,24,9,24,12,2,74,63,40,30.26,30.13,11,5,11,0.01
2013-12-11,28,21,9,16,9,-1,69,61,39,30.55,30.16,18,5,18,0.00
2013-12-12,49,28,9,22,14,0,71,56,31,30.51,30.11,14,7,14,0.00
2013-12-13,33,30,25,19,8,-1,65,41,24,30.11,29.81,11,5,11,0.43
2013-12-14,31,26,18,14,8,0,60,46,27,30.15,29.81,18,5,18,0.01
2013-12-15,51,33,17,35,20,0,65,59,46,30.15,29.91,11,4,11,0.00
2013-12-16,64,40,27,37,25,5,67,56,34,30.09,29.90,10,2,10,0.00
2013-12-17,48,37,27,32,22,8,64,54,40,30.22,30.09,13,2,13,0.00
2013-12-18,62,44,29,39,30,17,67,58,43,30.17,29.76,21,9,21,0.00
2013-12-19,57,53,48,40,34,20,64,50,28,29.77,29.62,14,7,14,0.00
2013-12-20,53,29,22,28,7,0,55,41,18,29.88,29.62,14,3,14,0.00
2013-12-21,28,24,22,8,3,1,52,40,33,29.83,29.53,16,5,16,0.00
2013-12-22,26,22,11,11,6,1,64,50,35,30.30,29.63,8,2,8,0.00
2013-12-23,18,10,4,9,2,-3,73,70,61,30.53,30.28,8,1,8,0.00
2013-12-24,30,16,1,20,5,-6,74,62,38,30.51,30.14,11,3,11,0.00
2013-12-25,44,30,26,32,12,1,65,46,32,30.27,30.18,8,2,8,0.25
2013-12-26,48,35,25,34,19,5,66,54,42,30.27,30.12,16,5,16,0.07
2013-12-27,54,39,27,38,23,2,65,52,33,30.27,30.13,10,4,10,0.00
2013-12-28,55,42,34,35,29,19,67,59,44,30.14,29.84,15,7,15,0.00
2013-12-29,40,20,9,30,9,-1,71,63,54,30.25,29.86,17,5,17,0.00
2013-12-30,30,18,7,15,6,-1,73,61,45,30.24,30.10,13,4,13,0.00
2013-12-31,50,33,18,30,20,8,70,60,44,30.25,30.02,21,6,21,0.00
2014-1-1,37,24,11,25,14,2,72,65,58,30.19,29.97,19,7,19,0.00
2014-1-2,20,8,1,5,-1,-5,76,66,51,30.40,30.18,15,3,15,0.00